Time,TemperatureF,DewpointF,PressureIn,WindDirection,WindDirectionDegrees,WindSpeedMPH,WindSpeedGustMPH,Humidity,HourlyPrecipIn,Conditions,Clouds,dailyrainin,SoftwareType,DateUTC
2013-04-09 00:03:00,42.0,40.0,29.97,East,87,0.0,3.0,94,0.00,,,0.71,,2013-04-09 04:03:00,
2013-04-09 00:13:00,42.0,40.0,29.97,East,87,0.0,3.0,94,0.00,,,0.71,,2013-04-09 04:13:00,
2013-04-09 00:23:00,41.0,39.0,29.97,East,87,0.0,2.0,94,0.00,,,0.71,,2013-04-09 04:23:00,
2013-04-09 00:32:00,41.0,39.0,29.98,East,87,0.0,1.0,94,0.00,,,0.71,,2013-04-09 04:32:00,
2013-04-09 00:42:00,41.0,39.0,29.98,East,87,0.0,1.0,94,0.00,,,0.71,,2013-04-09 04:42:00,
2013-04-09 00:53:00,41.0,39.0,29.98,East,87,0.0,1.0,94,0.00,,,0.71,,2013-04-09 04:53:00,
2013-04-09 01:02:00,41.0,39.0,30.00,East,87,0.0,0.0,94,0.00,,,0.71,,2013-04-09 05:02:00,
2013-04-09 01:12:00,41.0,40.0,30.01,East,87,0.0,0.0,95,0.00,,,0.71,,2013-04-09 05:12:00,
2013-04-09 01:22:00,41.0,40.0,30.01,East,87,0.0,0.0,95,0.00,,,0.71,,2013-04-09 05:22:00,
2013-04-09 01:32:00,41.0,40.0,30.01,East,87,0.0,0.0,95,0.00,,,0.71,,2013-04-09 05:32:00,
2013-04-09 01:43:00,41.0,40.0,30.02,East,87,0.0,0.0,95,0.00,,,0.71,,2013-04-09 05:43:00,
2013-04-09 01:52:00,41.0,40.0,30.02,East,87,0.0,0.0,95,0.00,,,0.71,,2013-04-09 05:52:00,
2013-04-09 02:02:00,41.0,40.0,30.03,East,87,0.0,0.0,95,0.00,,,0.71,,2013-04-09 06:02:00,
2013-04-09 02:12:00,41.0,40.0,30.03,East,87,0.0,0.0,95,0.00,,,0.71,,2013-04-09 06:12:00,
2013-04-09 02:22:00,41.0,40.0,30.03,East,87,0.0,0.0,95,0.00,,,0.71,,2013-04-09 06:22:00,
2013-04-09 02:32:00,41.0,40.0,30.03,East,87,0.0,1.0,95,0.00,,,0.71,,2013-04-09 06:32:00,
2013-04-09 02:42:00,41.0,40.0,30.03,East,87,0.0,1.0,95,0.00,,,0.71,,2013-04-09 06:42:00,
2013-04-09 02:52:00,41.0,40.0,30.03,East,87,1.0,2.0,95,0.00,,,0.71,,2013-04-09 06:52:00,
2013-04-09 03:02:00,41.0,40.0,30.02,East,87,3.0,4.0,96,0.00,,,0.71,,2013-04-09 07:02:00,
2013-04-09 03:13:00,41.0,40.0,30.02,East,87,3.0,4.0,96,0.00,,,0.71,,2013-04-09 07:13:00,
2013-04-09 03:22:00,41.0,40.0,30.01,East,87,2.0,3.0,96,0.00,,,0.71,,2013-04-09 07:22:00,
2013-04-09 03:32:00,41.0,40.0,30.02,East,87,2.0,3.0,96,0.00,,,0.71,,2013-04-09 07:32:00,
2013-04-09 03:42:00,41.0,40.0,30.02,East,87,2.0,3.0,96,0.00,,,0.71,,2013-04-09 07:42:00,
2013-04-09 03:53:00,41.0,40.0,30.03,East,87,0.0,0.0,96,0.00,,,0.71,,2013-04-09 07:53:00,
2013-04-09 04:03:00,41.0,40.0,30.03,East,87,0.0,3.0,95,0.00,,,0.71,,2013-04-09 08:03:00,
2013-04-09 04:12:00,41.0,40.0,30.03,East,87,0.0,3.0,95,0.00,,,0.71,,2013-04-09 08:12:00,
2013-04-09 04:22:00,40.0,39.0,30.01,East,95,5.0,8.0,96,0.00,,,0.71,,2013-04-09 08:22:00,
2013-04-09 04:32:00,40.0,39.0,30.01,SE,132,2.0,7.0,96,0.00,,,0.71,,2013-04-09 08:32:00,
2013-04-09 04:42:00,40.0,39.0,30.01,SE,132,2.0,7.0,96,0.00,,,0.71,,2013-04-09 08:42:00,
2013-04-09 04:52:00,40.0,39.0,30.01,South,182,2.0,4.0,96,0.00,,,0.71,,2013-04-09 08:52:00,
2013-04-09 05:02:00,40.0,39.0,30.02,ESE,122,0.0,4.0,96,0.00,,,0.71,,2013-04-09 09:02:00,
2013-04-09 05:12:00,40.0,39.0,30.02,ESE,122,0.0,4.0,96,0.00,,,0.71,,2013-04-09 09:12:00,
2013-04-09 05:22:00,40.0,39.0,30.03,SSE,155,0.0,5.0,96,0.00,,,0.71,,2013-04-09 09:22:00,
2013-04-09 05:33:00,40.0,39.0,30.04,SSE,155,0.0,2.0,96,0.00,,,0.71,,2013-04-09 09:33:00,
2013-04-09 05:43:00,40.0,39.0,30.04,SSE,155,0.0,2.0,96,0.00,,,0.71,,2013-04-09 09:43:00,
2013-04-09 05:52:00,40.0,39.0,30.03,SSE,149,1.0,5.0,96,0.00,,,0.71,,2013-04-09 09:52:00,
2013-04-09 06:03:00,40.0,39.0,30.03,SE,138,1.0,4.0,96,0.00,,,0.71,,2013-04-09 10:03:00,
2013-04-09 06:13:00,40.0,39.0,30.03,SE,138,1.0,4.0,96,0.00,,,0.71,,2013-04-09 10:13:00,
2013-04-09 06:23:00,40.0,39.0,30.03,South,178,1.0,7.0,96,0.00,,,0.71,,2013-04-09 10:23:00,
2013-04-09 06:33:00,40.0,39.0,30.03,SE,142,0.0,6.0,96,0.00,,,0.71,,2013-04-09 10:33:00,
2013-04-09 06:43:00,40.0,39.0,30.03,SE,142,0.0,6.0,96,0.00,,,0.71,,2013-04-09 10:43:00,
2013-04-09 06:53:00,40.0,39.0,30.04,ESE,122,4.0,6.0,96,0.00,,,0.71,,2013-04-09 10:53:00,
2013-04-09 07:02:00,40.0,39.0,30.04,SSE,154,2.0,8.0,96,0.00,,,0.71,,2013-04-09 11:02:00,
2013-04-09 07:12:00,40.0,39.0,30.04,SSE,154,2.0,8.0,96,0.00,,,0.71,,2013-04-09 11:12:00,
2013-04-09 07:22:00,40.0,39.0,30.03,SE,132,5.0,7.0,96,0.00,,,0.71,,2013-04-09 11:22:00,
2013-04-09 07:32:00,39.0,38.0,30.03,SE,142,5.0,12.0,96,0.00,,,0.71,,2013-04-09 11:32:00,
2013-04-09 07:42:00,39.0,38.0,30.03,SE,142,5.0,12.0,96,0.00,,,0.71,,2013-04-09 11:42:00,
2013-04-09 07:52:00,39.0,38.0,30.04,ESE,120,3.0,7.0,96,0.00,,,0.71,,2013-04-09 11:52:00,
2013-04-09 08:02:00,39.0,38.0,30.04,South,171,2.0,12.0,96,0.00,,,0.71,,2013-04-09 12:02:00,
2013-04-09 08:12:00,39.0,38.0,30.04,South,171,2.0,12.0,96,0.00,,,0.71,,2013-04-09 12:12:00,
2013-04-09 08:22:00,39.0,38.0,30.03,SE,138,4.0,8.0,96,0.00,,,0.71,,2013-04-09 12:22:00,
2013-04-09 08:32:00,39.0,38.0,30.02,East,92,5.0,9.0,96,0.00,,,0.71,,2013-04-09 12:32:00,
2013-04-09 08:42:00,39.0,38.0,30.02,East,92,5.0,9.0,96,0.00,,,0.71,,2013-04-09 12:42:00,
2013-04-09 08:53:00,39.0,38.0,30.03,SSE,166,1.0,8.0,96,0.00,,,0.71,,2013-04-09 12:53:00,
2013-04-09 09:03:00,39.0,38.0,30.02,SE,145,5.0,10.0,96,0.00,,,0.71,,2013-04-09 13:03:00,
2013-04-09 09:12:00,39.0,38.0,30.02,SE,145,5.0,10.0,96,0.00,,,0.71,,2013-04-09 13:12:00,
2013-04-09 09:23:00,39.0,38.0,30.02,SSE,151,7.0,10.0,96,0.00,,,0.71,,2013-04-09 13:23:00,
2013-04-09 09:33:00,39.0,38.0,30.03,SE,138,1.0,9.0,96,0.00,,,0.71,,2013-04-09 13:33:00,
2013-04-09 09:43:00,39.0,38.0,30.03,SE,138,1.0,9.0,96,0.00,,,0.71,,2013-04-09 13:43:00,
2013-04-09 09:53:00,39.0,38.0,30.01,East,92,2.0,9.0,96,0.00,,,0.71,,2013-04-09 13:53:00,
2013-04-09 10:03:00,40.0,39.0,30.01,SE,132,6.0,8.0,96,0.00,,,0.71,,2013-04-09 14:03:00,
2013-04-09 10:12:00,40.0,39.0,30.01,SE,132,6.0,8.0,96,0.00,,,0.71,,2013-04-09 14:12:00,
2013-04-09 10:22:00,40.0,39.0,29.99,ESE,103,5.0,11.0,95,0.00,,,0.71,,2013-04-09 14:22:00,
2013-04-09 10:32:00,40.0,39.0,29.99,East,87,2.0,7.0,96,0.00,,,0.71,,2013-04-09 14:32:00,
2013-04-09 10:43:00,40.0,39.0,29.99,East,87,2.0,7.0,96,0.00,,,0.71,,2013-04-09 14:43:00,
2013-04-09 10:52:00,40.0,39.0,30.01,East,94,4.0,6.0,95,0.00,,,0.71,,2013-04-09 14:52:00,
2013-04-09 11:02:00,40.0,39.0,30.05,ESE,103,0.0,2.0,95,0.02,,,0.73,,2013-04-09 15:02:00,
2013-04-09 11:13:00,40.0,39.0,30.05,ESE,103,0.0,2.0,95,0.02,,,0.73,,2013-04-09 15:13:00,
2013-04-09 11:23:00,40.0,39.0,30.04,East,101,0.0,5.0,95,0.07,,,0.78,,2013-04-09 15:23:00,
2013-04-09 11:33:00,40.0,39.0,30.03,East,101,1.0,5.0,95,0.11,,,0.75,,2013-04-09 15:33:00,
2013-04-09 11:43:00,40.0,39.0,30.03,East,101,1.0,5.0,95,0.11,,,0.75,,2013-04-09 15:43:00,
2013-04-09 11:54:00,40.0,39.0,30.04,East,97,0.0,4.0,95,0.13,,,0.77,,2013-04-09 15:54:00,
2013-04-09 12:03:00,40.0,39.0,30.02,ESE,103,4.0,7.0,96,0.14,,,0.80,,2013-04-09 16:03:00,
2013-04-09 12:13:00,40.0,39.0,30.02,ESE,103,4.0,7.0,96,0.14,,,0.80,,2013-04-09 16:13:00,
2013-04-09 12:23:00,41.0,40.0,30.01,ESE,115,3.0,12.0,96,0.11,,,0.82,,2013-04-09 16:23:00,
2013-04-09 12:33:00,41.0,40.0,30.03,ESE,123,2.0,7.0,96,0.08,,,0.46,,2013-04-09 16:33:00,
2013-04-09 12:42:00,41.0,40.0,30.03,ESE,123,2.0,7.0,96,0.08,,,0.46,,2013-04-09 16:42:00,
2013-04-09 12:54:00,41.0,40.0,29.99,East,80,4.0,11.0,96,0.14,,,0.54,,2013-04-09 16:54:00,
2013-04-09 13:02:00,41.0,40.0,29.98,ENE,61,1.0,11.0,96,0.13,,,0.56,,2013-04-09 17:02:00,
2013-04-09 13:13:00,41.0,40.0,29.98,ENE,61,1.0,11.0,96,0.13,,,0.56,,2013-04-09 17:13:00,
2013-04-09 13:23:00,41.0,40.0,30.03,ESE,112,0.0,4.0,96,0.17,,,0.62,,2013-04-09 17:23:00,
2013-04-09 13:32:00,41.0,40.0,29.98,NE,44,1.0,13.0,96,0.25,,,0.65,,2013-04-09 17:32:00,
2013-04-09 13:43:00,41.0,40.0,29.98,NE,44,1.0,13.0,96,0.25,,,0.65,,2013-04-09 17:43:00,
2013-04-09 13:53:00,41.0,40.0,29.97,SE,126,3.0,13.0,96,0.20,,,0.68,,2013-04-09 17:53:00,
2013-04-09 14:02:00,41.0,40.0,29.95,East,82,1.0,12.0,96,0.28,,,0.78,,2013-04-09 18:02:00,
2013-04-09 14:13:00,41.0,40.0,29.95,East,82,1.0,12.0,96,0.28,,,0.78,,2013-04-09 18:13:00,
2013-04-09 14:23:00,41.0,40.0,29.92,SSE,154,7.0,14.0,96,0.34,,,0.90,,2013-04-09 18:23:00,
2013-04-09 14:33:00,41.0,40.0,29.90,SE,128,7.0,15.0,96,0.37,,,0.94,,2013-04-09 18:33:00,
2013-04-09 14:43:00,41.0,40.0,29.90,SE,128,7.0,15.0,96,0.37,,,0.94,,2013-04-09 18:43:00,
2013-04-09 14:53:00,42.0,41.0,29.90,ENE,65,2.0,9.0,96,0.35,,,0.95,,2013-04-09 18:53:00,
2013-04-09 15:03:00,42.0,41.0,29.90,ENE,65,2.0,9.0,96,0.35,,,0.95,,2013-04-09 19:03:00,
2013-04-09 15:12:00,42.0,41.0,29.90,ENE,65,2.0,9.0,96,0.35,,,0.95,,2013-04-09 19:12:00,
2013-04-09 15:22:00,42.0,41.0,29.90,ENE,65,2.0,9.0,96,0.35,,,0.95,,2013-04-09 19:22:00,
2013-04-09 15:32:00,42.0,41.0,29.90,ESE,123,0.0,2.0,96,0.20,,,1.02,,2013-04-09 19:32:00,
2013-04-09 15:42:00,42.0,41.0,29.90,ESE,123,0.0,2.0,96,0.20,,,1.02,,2013-04-09 19:42:00,
2013-04-09 15:53:00,42.0,41.0,29.90,ESE,115,2.0,5.0,96,0.10,,,0.95,,2013-04-09 19:53:00,
2013-04-09 16:02:00,42.0,41.0,29.91,ESE,115,2.0,4.0,96,0.09,,,0.98,,2013-04-09 20:02:00,
2013-04-09 16:12:00,42.0,41.0,29.91,ESE,115,2.0,4.0,96,0.09,,,0.98,,2013-04-09 20:12:00,
2013-04-09 16:22:00,42.0,41.0,29.91,ESE,104,3.0,6.0,96,0.09,,,1.01,,2013-04-09 20:22:00,
2013-04-09 16:43:00,42.0,41.0,29.92,ESE,104,0.0,6.0,96,0.07,,,1.00,,2013-04-09 20:43:00,
2013-04-09 16:53:00,42.0,41.0,29.90,East,88,0.0,8.0,96,0.13,,,1.06,,2013-04-09 20:53:00,
2013-04-09 17:02:00,42.0,41.0,29.88,ESE,113,6.0,12.0,96,0.15,,,1.11,,2013-04-09 21:02:00,
2013-04-09 17:13:00,42.0,41.0,29.88,ESE,113,6.0,12.0,96,0.15,,,1.11,,2013-04-09 21:13:00,
2013-04-09 17:22:00,42.0,41.0,29.88,ESE,113,6.0,12.0,96,0.15,,,1.11,,2013-04-09 21:22:00,
2013-04-09 17:33:00,42.0,41.0,29.90,NW,305,4.0,8.0,96,0.16,,,1.14,,2013-04-09 21:33:00,
2013-04-09 17:42:00,42.0,41.0,29.90,NW,305,4.0,8.0,96,0.16,,,1.14,,2013-04-09 21:42:00,
2013-04-09 17:53:00,42.0,41.0,29.94,NNE,22,3.0,6.0,96,0.09,,,1.14,,2013-04-09 21:53:00,
2013-04-09 18:03:00,43.0,42.0,29.93,East,89,2.0,5.0,97,0.04,,,1.14,,2013-04-09 22:03:00,
2013-04-09 18:13:00,43.0,42.0,29.93,East,89,3.0,9.0,96,0.01,,,1.14,,2013-04-09 22:13:00,
2013-04-09 18:23:00,43.0,42.0,29.93,East,89,3.0,9.0,96,0.01,,,1.14,,2013-04-09 22:23:00,
2013-04-09 18:33:00,43.0,42.0,29.92,East,98,4.0,9.0,96,0.00,,,1.14,,2013-04-09 22:33:00,
2013-04-09 18:42:00,43.0,42.0,29.92,East,98,4.0,9.0,96,0.00,,,1.14,,2013-04-09 22:42:00,
2013-04-09 19:03:00,43.0,42.0,29.95,East,88,3.0,12.0,95,0.00,,,1.14,,2013-04-09 23:03:00,
2013-04-09 19:13:00,43.0,42.0,29.95,SE,135,4.0,11.0,95,0.00,,,1.14,,2013-04-09 23:13:00,
2013-04-09 19:23:00,43.0,42.0,29.95,SE,135,4.0,11.0,95,0.00,,,1.14,,2013-04-09 23:23:00,
2013-04-09 19:32:00,43.0,41.0,29.96,East,94,5.0,13.0,94,0.00,,,1.14,,2013-04-09 23:32:00,
2013-04-09 19:42:00,43.0,41.0,29.96,East,94,5.0,13.0,94,0.00,,,1.14,,2013-04-09 23:42:00,
2013-04-09 19:53:00,43.0,41.0,29.96,East,92,4.0,9.0,94,0.00,,,1.14,,2013-04-09 23:53:00,
2013-04-09 20:03:00,43.0,41.0,29.96,East,92,4.0,9.0,94,0.00,,,1.14,,2013-04-10 00:03:00,
2013-04-09 20:12:00,43.0,41.0,29.96,East,92,4.0,9.0,94,0.00,,,1.14,,2013-04-10 00:12:00,
2013-04-09 20:23:00,43.0,41.0,29.96,ESE,111,3.0,11.0,93,0.00,,,1.14,,2013-04-10 00:23:00,
2013-04-09 20:33:00,43.0,41.0,29.96,East,101,6.0,11.0,93,0.00,,,1.14,,2013-04-10 00:33:00,
2013-04-09 20:42:00,43.0,41.0,29.96,East,101,6.0,11.0,93,0.00,,,1.14,,2013-04-10 00:42:00,
2013-04-09 20:53:00,43.0,41.0,29.96,SSE,153,7.0,9.0,93,0.00,,,1.14,,2013-04-10 00:53:00,
2013-04-09 21:02:00,43.0,41.0,29.97,SE,130,4.0,9.0,93,0.00,,,1.14,,2013-04-10 01:02:00,
2013-04-09 21:12:00,43.0,41.0,29.97,East,91,4.0,12.0,93,0.00,,,1.14,,2013-04-10 01:12:00,
2013-04-09 21:23:00,43.0,41.0,29.97,East,91,4.0,12.0,93,0.00,,,1.14,,2013-04-10 01:23:00,
2013-04-09 21:32:00,43.0,41.0,29.98,East,98,1.0,5.0,93,0.00,,,1.14,,2013-04-10 01:32:00,
2013-04-09 21:43:00,43.0,41.0,29.98,East,98,1.0,5.0,93,0.00,,,1.14,,2013-04-10 01:43:00,
2013-04-09 21:53:00,43.0,41.0,29.98,East,92,7.0,10.0,92,0.00,,,1.14,,2013-04-10 01:53:00,
2013-04-09 22:02:00,43.0,41.0,29.99,ESE,109,3.0,11.0,93,0.00,,,1.14,,2013-04-10 02:02:00,
2013-04-09 22:13:00,43.0,41.0,29.99,ESE,109,3.0,11.0,93,0.00,,,1.14,,2013-04-10 02:13:00,
2013-04-09 22:22:00,43.0,41.0,30.01,ENE,76,2.0,6.0,93,0.00,,,1.14,,2013-04-10 02:22:00,
2013-04-09 22:32:00,43.0,41.0,30.01,East,81,3.0,8.0,93,0.00,,,1.14,,2013-04-10 02:32:00,
2013-04-09 22:43:00,43.0,41.0,30.01,East,81,3.0,8.0,93,0.00,,,1.14,,2013-04-10 02:43:00,
2013-04-09 22:53:00,43.0,41.0,30.00,ESE,109,6.0,15.0,93,0.00,,,1.14,,2013-04-10 02:53:00,
2013-04-09 23:03:00,43.0,41.0,30.00,ESE,103,6.0,9.0,93,0.00,,,1.14,,2013-04-10 03:03:00,
2013-04-09 23:12:00,43.0,41.0,30.00,ESE,103,6.0,9.0,93,0.00,,,1.14,,2013-04-10 03:12:00,
2013-04-09 23:22:00,43.0,41.0,30.01,ENE,63,2.0,9.0,93,0.00,,,1.14,,2013-04-10 03:22:00,
2013-04-09 23:33:00,43.0,41.0,30.01,East,84,5.0,13.0,93,0.00,,,1.14,,2013-04-10 03:33:00,
2013-04-09 23:43:00,43.0,41.0,30.01,East,84,5.0,13.0,93,0.00,,,1.14,,2013-04-10 03:43:00,
2013-04-09 23:53:00,43.0,41.0,30.01,East,94,2.0,9.0,93,0.00,,,1.14,,2013-04-10 03:53:00,